{"data":{"norad_id":60579,"epoch":"2026-05-24T23:15:03.788640Z","epoch_age_seconds":88425,"freshness":"FRESH","line1":"1 60579U 24149DR  26144.96879385  .00010773  00000+0  65971-3 0  9997","line2":"2 60579  97.6839 227.4688 0003865 244.0848 115.9983 15.10371274 96956","mean_motion":15.10371274,"eccentricity":0.0003865,"inclination_deg":97.6839,"raan_deg":227.4688,"arg_perigee_deg":244.0848,"mean_anomaly_deg":115.9983,"bstar":0.00065971,"rev_number":9695,"period_min":95.340796318667,"perigee_km":532.39489848815,"apogee_km":537.73880506557,"semimajor_km":6913.2038517769,"source":"CELESTRAK","updated_at":"2026-05-25T13:38:13.536947Z"}}